Temperature
11 11 11 11 10 10 9 8 7 7 6 5 5 4 3 2 2 2 1 1 1 1 0 -0 -1 -3 -4 -5 -6 -7 -7 -8 -8 -8 -8 -8 -8 -8 -8 -8 -8 -8 -8
11 10 10 10 9 9 8 7 7 6 5 5 4 3 2 2 1 1 1 1 1 0 -1 -2 -3 -4 -5 -6 -7 -7 -8 -8 -9 -9 -8 -8 -8 -8 -8 -8 -8 -8 -8
10 10 10 9 9 8 7 6 6 5 5 4 3 2 1 1 1 1 0 0 -0 -1 -2 -3 -5 -6 -6 -7 -8 -8 -8 -9 -9 -9 -9 -9 -8 -8 -8 -9 -9 -9 -9
10 9 9 8 8 7 6 6 5 4 4 3 2 1 1 1 1 0 -0 -1 -1 -2 -4 -5 -6 -6 -7 -8 -8 -9 -9 -9 -9 -9 -9 -8 -9 -9 -9 -9 -10 -10 -10
9 8 8 7 7 6 5 5 4 3 3 2 1 1 1 0 0 -1 -1 -2 -3 -4 -5 -6 -7 -7 -8 -9 -9 -9 -9 -9 -9 -8 -9 -9 -9 -9 -10 -10 -11 -10 -10
8 7 7 6 6 5 4 4 3 2 1 1 1 0 0 -0 -1 -2 -3 -4 -5 -6 -7 -7 -8 -8 -8 -9 -9 -9 -9 -9 -9 -9 -9 -10 -10 -10 -11 -11 -10 -10 -10
7 6 6 5 4 4 3 3 2 1 1 0 0 -0 -1 -1 -2 -2 -4 -6 -6 -7 -7 -8 -8 -8 -9 -9 -9 -9 -9 -9 -9 -10 -10 -11 -11 -11 -10 -10 -10 -11 -11
6 5 4 4 3 3 2 2 1 0 0 -0 -0 -1 -1 -2 -3 -3 -5 -6 -7 -8 -8 -8 -9 -9 -9 -10 -9 -9 -9 -9 -10 -10 -11 -10 -10 -10 -10 -11 -11 -11 -11
5 4 3 3 2 2 1 1 0 -0 -0 -1 -1 -2 -2 -3 -3 -4 -6 -7 -8 -8 -9 -9 -10 -10 -10 -9 -9 -10 -10 -10 -10 -10 -10 -10 -10 -10 -10 -11 -11 -12 -12
4 3 2 2 1 1 0 0 -0 -1 -1 -1 -2 -2 -3 -4 -4 -5 -7 -8 -9 -9 -9 -9 -10 -10 -10 -9 -10 -10 -10 -10 -10 -10 -10 -9 -9 -9 -9 -10 -11 -12 -12
2 2 1 1 1 0 -0 -1 -1 -1 -2 -2 -2 -3 -3 -4 -5 -6 -8 -9 -9 -9 -9 -10 -10 -10 -10 -10 -10 -10 -11 -10 -10 -10 -9 -9 -9 -9 -9 -9 -10 -11 -12
2 1 1 0 -0 -0 -1 -1 -1 -2 -2 -3 -3 -3 -4 -5 -6 -7 -9 -9 -9 -10 -10 -10 -10 -10 -10 -11 -10 -10 -11 -11 -10 -10 -10 -10 -9 -9 -8 -9 -9 -9 -10
1 0 0 -0 -1 -1 -1 -2 -2 -3 -3 -4 -4 -5 -6 -6 -7 -8 -9 -10 -10 -10 -10 -10 -10 -11 -10 -10 -9 -10 -10 -10 -11 -11 -11 -9 -9 -8 -8 -8 -8 -8 -8
0 -0 -1 -1 -1 -2 -2 -2 -3 -3 -4 -5 -6 -7 -8 -8 -8 -9 -10 -10 -10 -10 -10 -10 -10 -10 -10 -10 -9 -9 -10 -10 -12 -11 -10 -9 -8 -8 -8 -9 -9 -9 -8
-0 -1 -1 -2 -2 -2 -3 -3 -4 -4 -5 -7 -8 -8 -9 -9 -10 -10 -10 -10 -11 -11 -11 -11 -10 -10 -10 -10 -9 -10 -10 -10 -10 -9 -9 -9 -8 -8 -8 -8 -9 -9 -9
-1 -1 -2 -2 -2 -3 -3 -4 -4 -5 -6 -7 -8 -9 -9 -9 -10 -10 -10 -10 -10 -11 -11 -10 -10 -10 -10 -10 -11 -10 -10 -9 -9 -9 -9 -8 -9 -9 -8 -8 -8 -9 -9
-2 -2 -2 -3 -3 -4 -4 -5 -5 -5 -6 -7 -7 -8 -9 -9 -9 -10 -10 -10 -10 -10 -10 -11 -11 -11 -11 -11 -11 -10 -10 -9 -9 -9 -8 -8 -8 -9 -8 -8 -8 -9 -9
-2 -3 -3 -4 -4 -5 -5 -6 -6 -7 -7 -7 -7 -8 -9 -9 -9 -10 -10 -10 -10 -10 -11 -11 -11 -11 -11 -11 -10 -10 -9 -9 -8 -8 -8 -8 -8 -9 -8 -8 -8 -9 -9
-3 -3 -4 -5 -5 -5 -6 -6 -7 -7 -8 -8 -9 -9 -9 -9 -9 -9 -10 -10 -11 -11 -11 -11 -11 -11 -11 -10 -10 -9 -9 -8 -8 -8 -8 -8 -8 -8 -8 -8 -8 -8 -8
-4 -4 -5 -5 -6 -6 -6 -7 -8 -8 -9 -9 -9 -10 -10 -10 -10 -10 -10 -10 -11 -11 -11 -11 -11 -10 -10 -10 -9 -9 -8 -8 -8 -8 -8 -8 -8 -8 -8 -8 -8 -8 -8
-5 -5 -5 -6 -6 -7 -7 -8 -9 -9 -9 -10 -10 -10 -11 -11 -10 -10 -10 -11 -11 -11 -11 -11 -10 -10 -10 -9 -9 -8 -8 -8 -8 -8 -8 -8 -8 -8 -8 -8 -8 -8 -8
-5 -6 -6 -6 -7 -7 -8 -9 -9 -10 -10 -10 -10 -10 -10 -10 -10 -10 -11 -11 -11 -11 -11 -11 -10 -10 -9 -9 -8 -8 -8 -7 -7 -8 -8 -8 -7 -8 -8 -8 -7 -7 -8
-6 -6 -6 -7 -8 -8 -9 -9 -10 -10 -11 -11 -11 -10 -10 -10 -10 -11 -11 -11 -10 -10 -10 -10 -10 -9 -9 -8 -8 -8 -7 -7 -7 -7 -8 -7 -7 -7 -7 -7 -7 -7 -7
-6 -7 -7 -8 -8 -9 -9 -10 -10 -11 -11 -11 -11 -11 -11 -11 -11 -11 -11 -10 -10 -10 -10 -10 -9 -9 -8 -8 -7 -7 -7 -7 -7 -7 -7 -7 -7 -7 -7 -7 -7 -7 -7
-7 -7 -8 -9 -9 -10 -10 -10 -11 -11 -11 -11 -11 -11 -11 -11 -11 -11 -10 -10 -10 -10 -10 -9 -9 -8 -8 -7 -7 -7 -7 -7 -7 -7 -7 -7 -7 -7 -7 -7 -7 -7 -7
-7 -8 -9 -9 -10 -10 -11 -11 -11 -11 -11 -11 -11 -11 -11 -11 -11 -11 -10 -10 -10 -10 -9 -9 -8 -8 -7 -7 -7 -7 -7 -7 -7 -7 -7 -7 -7 -7 -6 -6 -6 -7 -7
Wind_Speed
11 12 13 13 13 12 11 9 8 8 7 7 6 5 4 3 3 3 4 4 5 6 6 6 8 8 6 6 6 7 8 10 16 18 13 11 11 12 14 15 18 16 19
12 13 14 13 13 12 10 9 8 8 7 6 6 5 4 4 4 4 5 6 6 7 8 8 8 8 8 7 7 9 10 10 14 20 18 14 14 13 14 13 14 15 11
13 14 14 12 12 11 9 8 8 8 7 6 6 5 4 4 4 4 5 6 6 7 7 8 8 8 9 9 10 10 10 11 11 16 19 16 14 13 13 14 13 11 15
14 14 13 11 11 10 9 8 8 7 7 6 5 3 3 4 5 5 6 6 5 6 6 7 8 9 11 11 11 10 10 11 12 15 16 15 14 12 12 14 15 11 14
14 13 11 10 10 9 8 8 8 7 6 5 4 3 4 4 5 7 6 5 4 6 7 8 9 14 16 14 14 11 12 13 14 15 16 16 15 14 15 15 18 17 14
14 12 11 10 9 9 8 8 7 6 5 4 4 4 5 4 10 14 11 5 5 7 9 9 10 12 16 22 25 24 22 18 16 14 15 17 18 17 16 17 18 19 18
13 11 10 10 9 8 8 7 7 5 3 4 4 4 5 7 13 15 16 8 5 8 9 10 11 13 18 13 20 24 20 23 24 18 17 18 19 18 19 21 18 19 20
12 10 9 9 9 8 7 7 5 3 3 3 3 5 5 8 14 16 18 8 7 9 10 10 12 12 14 18 17 14 11 13 18 15 13 16 17 16 17 19 19 19 18
11 10 9 9 9 7 7 5 3 3 3 2 3 5 6 8 14 17 18 7 7 9 10 10 12 11 22 27 18 15 15 14 19 23 24 24 28 28 22 15 15 15 18
10 9 9 8 8 7 6 4 3 2 2 4 5 5 6 8 13 18 19 7 8 8 8 8 16 20 25 27 16 12 15 16 16 17 18 20 17 19 23 14 13 15 16
11 10 9 8 8 7 5 3 3 3 4 5 6 6 7 9 13 18 19 9 9 10 10 8 10 24 27 26 22 12 18 20 14 14 14 14 13 12 12 12 13 13 15
12 11 9 7 6 6 6 4 3 4 4 5 5 7 6 8 11 16 20 19 18 11 12 10 13 26 26 25 18 19 24 20 12 13 13 13 13 13 13 14 16 15 15
11 9 8 7 6 5 5 4 3 3 3 5 5 6 7 6 9 18 20 22 22 13 12 20 24 25 22 16 19 23 19 12 12 12 13 13 12 12 14 13 14 14 16
10 8 7 6 5 4 3 3 2 3 4 5 6 6 7 7 7 8 8 11 16 14 12 16 21 21 17 17 16 14 11 11 13 12 13 13 12 11 12 12 14 14 14
9 7 6 5 4 3 3 2 3 3 5 7 5 5 8 7 11 20 15 11 12 13 15 8 9 11 11 12 12 12 11 12 13 12 12 13 14 14 14 11 11 13 12
8 6 4 3 3 3 3 4 6 7 11 12 13 13 11 15 20 20 20 21 22 21 15 10 11 11 12 13 13 14 13 13 13 13 13 13 13 14 14 13 12 12 13
7 5 4 3 3 2 3 4 5 7 9 12 14 16 16 19 19 19 21 21 19 17 10 10 11 12 12 12 13 13 14 14 13 12 13 13 13 13 13 13 13 12 12
7 6 4 3 2 2 3 4 4 6 8 8 11 16 18 19 19 19 20 17 12 11 9 10 11 12 12 13 13 13 14 14 13 13 13 13 12 12 13 13 12 13 13
5 4 3 2 2 3 4 4 4 6 7 8 7 10 15 17 17 17 16 9 10 11 11 11 12 12 12 13 13 13 14 14 14 14 13 13 12 12 12 12 13 17 14
4 5 3 2 2 3 4 4 5 6 7 7 8 9 10 11 8 10 10 8 9 11 11 12 12 13 13 13 13 13 14 14 14 13 13 13 12 12 13 14 13 12 10
3 3 4 3 3 4 4 4 5 6 7 7 8 11 17 10 8 9 9 9 9 11 12 13 13 13 13 12 12 13 15 14 14 13 13 13 13 13 12 12 11 10 9
2 2 2 3 3 4 5 4 6 7 8 9 9 11 17 10 8 8 9 10 10 10 11 12 12 12 13 13 13 14 15 15 15 14 14 14 13 12 11 10 9 8 7
2 2 3 3 3 6 6 6 6 6 7 8 10 10 10 9 9 8 10 10 11 12 12 12 13 14 13 13 13 13 14 15 15 16 15 14 12 10 9 8 9 8 6
2 2 3 3 4 4 5 6 6 8 8 9 10 9 10 10 11 11 11 11 12 12 12 12 14 17 21 18 14 13 14 15 16 15 15 10 9 8 8 7 7 6 5
2 3 3 4 4 5 6 6 7 8 9 10 9 10 10 11 11 11 11 11 12 13 15 15 13 14 19 23 22 18 23 28 23 12 8 8 8 8 7 6 5 4 4
3 3 4 4 5 5 6 7 8 8 8 9 9 9 10 11 11 11 11 11 12 13 15 14 16 19 22 20 21 25 29 26 19 17 9 6 7 6 6 4 5 4 4
Wind_Direction
125 122 120 116 114 112 112 112 110 104 101 95 87 73 53 31 4 354 329 316 313 304 300 291 281 275 265 258 256 261 263 267 284 295 295 294 287 286 291 284 282 279 281
124 120 116 115 113 111 111 110 109 105 98 93 83 68 44 16 354 345 326 322 311 306 303 301 295 297 280 271 270 268 269 267 278 293 300 302 296 292 289 286 295 293 283
123 119 117 115 114 114 113 111 107 104 94 84 78 63 28 355 340 326 312 307 305 305 307 305 300 296 288 281 276 276 276 282 282 291 297 299 297 297 298 297 291 284 286
121 119 118 117 117 116 114 109 105 101 93 84 77 56 14 341 324 311 307 304 306 311 306 298 294 291 286 284 286 279 287 294 292 291 294 298 301 301 302 305 304 292 291
120 118 118 117 115 113 109 106 101 95 92 88 73 38 3 338 320 316 307 297 294 298 295 290 290 300 303 304 306 307 304 299 299 299 302 306 307 310 308 307 304 302 293
121 122 124 121 117 113 110 106 100 92 85 69 47 16 352 336 325 327 323 298 280 292 297 293 293 296 303 312 311 307 305 305 307 307 308 305 304 305 305 303 303 303 301
122 126 127 123 117 113 112 104 98 93 75 51 21 353 329 319 329 327 322 322 296 293 293 296 304 308 313 299 299 304 305 306 307 305 301 300 300 302 302 303 302 300 299
125 126 125 120 115 111 105 100 97 87 61 34 346 333 326 324 331 325 322 327 296 286 286 289 293 295 300 306 306 308 303 301 301 300 292 293 296 299 300 302 301 299 296
126 126 123 120 117 111 106 101 91 69 39 353 328 331 326 318 326 324 324 303 291 289 289 291 302 301 306 313 317 313 310 308 309 306 304 305 306 307 307 307 305 305 303
126 120 115 114 115 113 109 98 77 63 11 340 330 321 312 305 318 325 324 303 298 299 295 290 308 313 313 319 320 315 314 311 311 313 312 308 303 301 306 305 303 301 301
116 110 106 107 110 110 100 88 70 41 6 345 323 313 307 308 320 325 324 324 314 315 315 310 306 315 318 322 324 318 309 315 321 317 310 306 305 304 306 304 299 296 296
111 107 103 100 101 100 93 78 58 29 356 333 320 315 301 300 315 320 325 325 325 319 316 312 313 319 324 325 324 317 319 325 319 311 309 309 310 309 308 306 301 295 287
107 105 103 95 84 83 81 62 34 7 342 320 311 306 307 304 310 321 324 325 326 323 313 316 320 324 327 325 319 321 326 321 312 311 311 309 306 301 305 307 305 300 294
109 106 103 98 87 70 56 33 11 338 318 306 302 307 309 310 308 306 309 319 324 322 313 316 323 324 324 322 321 321 317 311 314 311 309 307 307 308 310 312 313 315 314
105 102 98 93 89 61 29 350 325 283 277 305 300 304 319 315 318 327 330 326 326 321 326 326 325 325 325 324 322 319 318 318 317 313 311 311 312 313 312 314 311 314 313
109 104 99 90 71 47 4 332 320 315 320 325 327 326 322 321 325 330 332 331 332 332 334 327 323 322 321 321 320 319 318 317 316 314 311 309 310 311 312 314 314 314 314
109 106 90 72 50 14 344 324 318 320 321 328 332 332 330 329 330 334 335 335 335 337 334 323 319 318 316 315 314 313 313 312 311 309 307 308 308 309 310 312 315 316 315
90 83 82 63 23 337 311 300 298 311 321 321 328 330 332 332 331 336 337 339 332 334 326 320 317 314 313 312 312 311 310 310 311 310 308 307 307 307 309 310 312 313 315
84 74 70 38 344 311 300 297 298 306 311 312 315 323 331 328 330 334 340 334 324 323 321 317 313 310 309 309 309 308 307 306 306 307 305 305 306 307 307 307 308 312 316
63 49 52 8 324 310 305 306 310 313 315 316 319 323 322 321 326 329 330 322 320 319 317 314 310 307 307 307 307 307 307 306 306 305 304 305 305 304 303 305 307 310 314
61 18 5 354 325 314 309 311 315 315 314 316 315 317 323 326 319 316 317 318 318 316 315 312 308 307 307 306 306 305 303 303 303 303 303 303 304 304 302 301 303 308 314
54 360 339 326 321 316 318 322 318 316 316 314 312 313 321 321 310 311 315 315 314 312 309 307 304 303 303 303 303 303 302 301 301 302 302 302 301 299 299 301 308 316 320
38 3 347 338 330 329 330 321 319 315 312 311 311 313 315 314 315 314 314 315 314 311 309 307 304 303 303 302 300 297 295 295 295 294 294 294 295 297 302 310 317 323 326
28 2 345 332 323 318 318 315 315 315 314 311 310 311 312 314 315 314 313 312 311 309 307 306 303 301 302 307 306 303 296 294 293 291 289 294 304 311 313 317 322 326 329
18 354 338 325 318 314 312 309 308 309 310 310 309 311 313 313 311 311 311 310 308 308 308 308 305 305 307 309 308 306 305 309 315 323 323 318 314 315 317 321 329 337 350
358 340 326 315 308 303 302 304 306 306 307 308 308 309 310 309 309 309 309 308 310 311 309 309 307 308 309 309 307 310 314 321 334 343 342 321 321 323 329 335 351 4 8
Height
1448 1453 1458 1462 1467 1472 1475 1478 1480 1481 1481 1481 1480 1479 1478 1476 1474 1473 1470 1468 1465 1462 1459 1454 1450 1446 1441 1437 1433 1429 1425 1419 1407 1393 1389 1384 1380 1376 1371 1367 1363 1357 1352
1447 1453 1457 1462 1466 1470 1473 1475 1477 1478 1478 1477 1476 1475 1474 1473 1471 1468 1466 1463 1460 1456 1452 1448 1443 1439 1434 1430 1426 1421 1416 1411 1403 1391 1382 1377 1372 1368 1362 1357 1353 1348 1343
1447 1452 1456 1461 1464 1468 1471 1473 1474 1475 1474 1474 1473 1472 1471 1469 1467 1464 1461 1458 1454 1450 1445 1441 1436 1431 1426 1422 1418 1413 1408 1403 1398 1389 1378 1371 1365 1360 1354 1348 1343 1337 1332
1446 1451 1456 1460 1463 1466 1469 1470 1471 1471 1471 1470 1469 1468 1467 1465 1463 1459 1456 1452 1448 1444 1439 1435 1430 1425 1419 1415 1410 1406 1402 1396 1389 1382 1373 1365 1359 1352 1347 1339 1331 1325 1319
1446 1451 1455 1458 1462 1464 1466 1467 1468 1468 1467 1467 1466 1465 1463 1461 1458 1454 1450 1446 1441 1437 1433 1428 1423 1419 1415 1410 1406 1401 1395 1388 1382 1375 1367 1360 1353 1346 1339 1331 1323 1315 1307
1445 1450 1454 1457 1460 1462 1463 1464 1464 1464 1464 1464 1463 1461 1459 1456 1453 1449 1445 1440 1436 1431 1426 1422 1417 1413 1408 1404 1399 1394 1390 1383 1376 1369 1361 1354 1346 1340 1332 1325 1317 1308 1297
1445 1449 1453 1455 1458 1459 1461 1461 1462 1462 1462 1461 1459 1457 1455 1451 1448 1444 1439 1435 1430 1426 1421 1416 1411 1406 1402 1395 1389 1385 1381 1376 1372 1365 1355 1347 1340 1334 1327 1318 1311 1303 1294
1445 1448 1451 1454 1456 1457 1458 1459 1460 1460 1459 1458 1456 1453 1450 1446 1442 1438 1434 1429 1425 1421 1416 1411 1405 1399 1394 1389 1383 1377 1371 1366 1361 1355 1349 1342 1335 1328 1322 1314 1305 1295 1286
1444 1447 1450 1452 1454 1456 1457 1458 1458 1457 1456 1454 1452 1449 1445 1441 1437 1433 1429 1423 1419 1415 1410 1406 1400 1394 1388 1384 1378 1370 1363 1356 1352 1347 1342 1336 1328 1322 1315 1307 1298 1290 1278
1443 1446 1449 1451 1453 1455 1456 1456 1455 1454 1453 1451 1448 1445 1441 1436 1432 1428 1423 1418 1413 1408 1404 1399 1395 1389 1383 1378 1371 1364 1356 1349 1344 1337 1332 1326 1320 1314 1308 1302 1294 1285 1275
1443 1446 1449 1451 1453 1454 1454 1453 1453 1451 1449 1447 1444 1441 1437 1432 1427 1423 1419 1414 1409 1404 1398 1392 1387 1382 1377 1371 1365 1358 1352 1346 1339 1332 1324 1318 1312 1307 1301 1295 1288 1281 1271
1443 1446 1449 1451 1452 1452 1452 1451 1450 1448 1445 1442 1439 1436 1432 1428 1423 1418 1414 1410 1406 1399 1393 1387 1381 1376 1370 1364 1358 1352 1348 1341 1333 1326 1319 1312 1306 1300 1293 1287 1280 1274 1266
1444 1446 1448 1449 1450 1450 1450 1449 1447 1444 1441 1438 1434 1430 1426 1422 1418 1414 1409 1405 1400 1394 1388 1382 1376 1369 1363 1357 1352 1348 1342 1335 1327 1321 1315 1308 1302 1295 1287 1280 1273 1266 1258
1444 1446 1447 1448 1449 1448 1447 1446 1444 1441 1438 1434 1430 1425 1421 1417 1413 1408 1404 1399 1393 1388 1382 1375 1370 1364 1358 1353 1348 1342 1336 1331 1325 1318 1311 1304 1297 1290 1283 1275 1267 1259 1250
1444 1446 1447 1447 1447 1446 1445 1443 1441 1438 1435 1431 1426 1422 1417 1412 1409 1406 1401 1394 1389 1383 1377 1370 1364 1359 1353 1348 1343 1337 1332 1326 1320 1314 1308 1301 1293 1286 1279 1272 1265 1257 1249
1444 1445 1446 1446 1445 1444 1443 1441 1438 1435 1432 1428 1424 1420 1414 1410 1405 1401 1396 1391 1385 1379 1373 1367 1361 1355 1350 1344 1339 1333 1327 1322 1316 1310 1304 1298 1290 1282 1275 1269 1262 1255 1248
1444 1445 1445 1444 1443 1442 1439 1437 1434 1432 1429 1425 1420 1416 1411 1406 1401 1396 1391 1386 1381 1375 1370 1364 1358 1353 1348 1342 1336 1330 1324 1318 1313 1307 1301 1294 1287 1280 1273 1266 1260 1254 1247
1444 1444 1443 1443 1441 1439 1436 1433 1430 1426 1423 1420 1416 1412 1407 1402 1397 1392 1387 1381 1376 1371 1366 1361 1356 1351 1345 1339 1333 1327 1321 1315 1309 1304 1297 1291 1284 1277 1271 1265 1259 1253 1246
1443 1443 1442 1440 1438 1436 1433 1430 1427 1423 1419 1414 1410 1407 1403 1398 1394 1389 1384 1378 1372 1367 1363 1358 1353 1348 1342 1337 1330 1324 1318 1312 1306 1300 1294 1287 1281 1275 1269 1263 1258 1252 1247
1442 1441 1440 1438 1436 1433 1430 1427 1423 1419 1415 1411 1406 1402 1397 1393 1388 1384 1380 1375 1370 1365 1360 1355 1350 1345 1339 1333 1327 1321 1315 1309 1303 1296 1290 1284 1278 1272 1267 1262 1257 1251 1247
1441 1439 1438 1435 1433 1430 1427 1423 1420 1416 1411 1407 1404 1400 1395 1390 1385 1381 1376 1371 1367 1362 1357 1352 1347 1342 1336 1330 1324 1318 1312 1306 1299 1293 1287 1281 1276 1270 1266 1261 1256 1251 1247
1439 1437 1435 1433 1430 1427 1423 1420 1416 1412 1408 1404 1399 1396 1392 1387 1382 1378 1373 1368 1364 1359 1355 1349 1344 1339 1333 1327 1321 1315 1308 1302 1296 1290 1284 1279 1274 1269 1264 1260 1256 1252 1247
1437 1435 1433 1430 1427 1424 1420 1416 1412 1408 1404 1400 1396 1391 1387 1383 1378 1374 1369 1365 1360 1356 1352 1347 1342 1336 1330 1325 1319 1313 1306 1300 1294 1288 1282 1277 1272 1268 1264 1260 1256 1252 1248
1435 1433 1430 1427 1423 1420 1416 1413 1409 1404 1400 1396 1392 1387 1383 1379 1374 1370 1366 1362 1357 1353 1349 1344 1339 1333 1328 1322 1317 1311 1305 1298 1291 1286 1282 1277 1273 1268 1264 1260 1256 1253 1249
1432 1430 1426 1423 1420 1416 1413 1409 1405 1401 1396 1392 1388 1383 1379 1375 1371 1367 1363 1359 1355 1351 1346 1342 1336 1331 1325 1320 1315 1309 1303 1296 1291 1286 1281 1277 1272 1268 1264 1261 1257 1254 1252
1429 1426 1423 1420 1416 1413 1409 1405 1401 1396 1392 1388 1384 1379 1375 1371 1367 1363 1360 1356 1352 1348 1344 1339 1334 1329 1324 1319 1313 1307 1301 1295 1290 1285 1280 1276 1272 1268 1265 1262 1260 1257 1254